Regional Weather Roundup
Issued by NWS

Home | Current Version | Previous Version | Text Only | Print | Product List | Glossary On
Versions: 1 2 3 4 5 6 7 8 9 10 11 12 13 14 15 16 17 18 19 20 21 22 23 24 25 26 27 28 29 30 31 32 33 34 35 36 37 38 39 40 41 42 43 44 45 46 47 48 49 50
000
ASUS43 KFSD 291310
RWRSD

WEATHER ROUNDUP FOR SOUTH DAKOTA
NATIONAL WEATHER SERVICE SIOUX FALLS SD
800 AM CDT TUE JUL 29 2014

NOTE: "FAIR" INDICATES FEW OR NO CLOUDS BELOW 12,000 FEET WITH NO
SIGNIFICANT WEATHER AND/OR OBSTRUCTIONS TO VISIBILITY.


SDZ001>005-009-010-012>017-291400-
NORTHWEST AND NORTH CENTRAL SOUTH DAKOTA

CITY           SKY/WX    TMP DP  RH WIND       PRES   REMARKS
BUFFALO          N/A     60  53  77 CALM      30.20R
FAITH            N/A     60  53  77 S6        30.25S
MOBRIDGE       SUNNY     59  55  87 CALM      30.22R
$$

SDZ012>016-024>037-041>051-057-063-072>074-291400-
SOUTHWEST AND SOUTH CENTRAL SOUTH DAKOTA

CITY           SKY/WX    TMP DP  RH WIND       PRES   REMARKS
RAPID CTY ARPT PTSUNNY   61  54  77 CALM      30.27S
PIERRE         SUNNY     56  54  93 SW5       30.23R
CUSTER         CLOUDY    57  48  72 NE3       30.35F
ELLSWORTH AFB  MOSUNNY   62  52  71 S3        30.26F
PHILIP         MOSUNNY   56  50  80 SW3       30.24S
PINE RIDGE     CLOUDY    63  57  81 NE5       30.27R
WINNER         FAIR      60  52  74 CALM      30.24S
$$

SDZ004>011-016>023-039-040-291400-
NORTHEAST SOUTH DAKOTA

CITY           SKY/WX    TMP DP  RH WIND       PRES   REMARKS
ABERDEEN       SUNNY     57  51  80 CALM      30.23S
WATERTOWN      SUNNY     56  54  93 CALM      30.22S
SISSETON         N/A     61  57  87 N5        30.20R
$$

SDZ017-020-022-023-036>040-048>070-291400-
SOUTHEAST SOUTH DAKOTA

CITY           SKY/WX    TMP DP  RH WIND       PRES   REMARKS
SIOUX FALLS    MOSUNNY   57  53  86 CALM      30.23R
HURON          PTSUNNY   58  54  86 CALM      30.23R
CHAMBERLAIN    SUNNY     55  52  92 CALM      30.24S
MITCHELL       SUNNY     56  53  90 CALM      30.24R
YANKTON        SUNNY     57  54  88 N3        30.24R
$$

ABBREVIATIONS USED IN REMARKS
   TC - TEMPERATURE IN CELSIUS
  WCI - WIND CHILL INDEX
   HX - HEAT INDEX
  VSB - VISIBILITY



USA.gov is the U.S. government's official web portal to all federal, state and local government web resources and services.